893  
NZUS99 KTBW 171117  
RWRTPA  
FLORIDA REGIONAL WEATHER ROUNDUP  
NATIONAL WEATHER SERVICE TAMPA BAY RUSKIN FL  
700 AM EDT WED OCT 17 2018  
 
NOTE: "FAIR" INDICATES FEW OR NO CLOUDS BELOW 12,000 FEET WITH NO  
SIGNIFICANT WEATHER AND/OR S TO VISIBILITY
.  
 
 
STATION/POSITION
 
 
 
FLZ042-048>051-055-056-060-061-171200-  
EXTRA STATIONS  
 
CITY SKY/WX TMP DP RH WIND PRES REMARKS
 
EVERGLADES CTY NOT AVBL  
CRYSTAL RIVER FAIR 72 70 94 CALM 30.12R  
SEBRING FAIR 73 71 93 E3 30.11R  
EGLIN AFB CLEAR 70 70 100 N3 30.12R FOG  
CANAVERAL FAIR 76 73 91 E5 30.10R  
 

 
FLZ001>010-012>015-171200-  
PANHANDLE FLORIDA  
 
CITY SKY/WX TMP DP RH WIND PRES REMARKS
 
PENSACOLA FAIR 75 73 93 CALM 30.12R FOG  
MILTON NAS FOG 72 72 100 N6 30.12 VSB 1/2  
CRESTVIEW FOG 72 70 93 CALM 30.13R VSB 1/2  
VALPARAISO PTCLDY 74 73 97 CALM 30.11R  
MARY ESTHER CLEAR 73 63 69 NE3 30.10  
 
STATION/POSITION
 
 
29.2N 88.2W  
 

 
FLZ011-016>039-171200-  
NORTH FLORIDA  
 
CITY SKY/WX TMP DP RH WIND PRES REMARKS
 
TALLAHASSEE FOG 68 68 100 E3 30.12R VSB 3/4  
PERRY FOG 73 72 97 CALM 30.13R VSB 1/4  
CROSS CITY MOCLDY 68 68 98 CALM 30.12R FOG  
GAINESVILLE FAIR 74 72 93 S5 30.14S  
JACKSONVILLE FAIR 76 74 93 SW6 30.11R  
JAX NAS PTCLDY 78 76 93 S9 30.12R  
JAX CRAIG FAIR 75 75 100 SW5 30.11S  
ST AUGUSTINE FAIR 75 73 94 SW6 30.13S  
 
STATION/POSITION
 
 
KEATON BEACH  
31.4N 80.9W  
ST AUGUSTINE  
 

 
FLZ040-043>046-052-053-057-058-063-171200-  
CENTRAL FLORIDA  
 
CITY SKY/WX TMP DP RH WIND PRES REMARKS
 
OCALA FAIR 71 70 96 CALM 30.13S  
LEESBURG FAIR 74 74 100 NE5 30.13R  
SANFORD FAIR 75 74 96 NE3 30.12R  
ORLANDO EXEC FAIR 75 75 100 CALM 30.12R  
ORLANDO INTL FAIR 73 73 100 CALM 30.12R  
KISSIMMEE FAIR 76 75 97 E3 30.13R  
WINTER HAVEN FAIR 77 75 93 E3 30.12R  
LAKELAND CLEAR 73 72 94 NE5 30.12R  
BARTOW N/A 73 N/A N/A E3 30.12R  
 

 
FLZ041-047-054-059-064-171200-  
EAST CENTRAL FLORIDA  
 
CITY SKY/WX TMP DP RH WIND PRES REMARKS
 
DAYTONA BEACH FAIR 72 72 100 CALM 30.13R  
JFK SPACE CTR FAIR 71 70 95 CALM 30.11R  
TITUSVILLE CLEAR 75 73 94 CALM 30.12  
PATRICK AFB FAIR 81 77 88 E9 30.11R  
MELBOURNE FAIR 81 75 82 E8 30.11R  
VERO BEACH FAIR 78 74 87 E6 30.11R  
FT PIERCE FAIR 73 70 90 CALM 30.10R  
STUART PTCLDY 77 72 83 SE8 30.11R  
 
STATION/POSITION
 
 
28.9N 78.5W  
 

 
FLZ042-048>051-055-056-060-061-171200-  
WEST CENTRAL FLORIDA  
 
CITY SKY/WX TMP DP RH WIND PRES REMARKS
 
BROOKSVILLE FAIR 69 69 100 CALM 30.13R  
TAMPA FAIR 77 72 84 NE3 30.11R  
MACDILL AFB CLEAR 72 69 91 NE7 30.10R  
ST PETERSBURG FAIR 77 73 87 E5 30.10R  
ST PET-WHITTED FAIR 79 74 84 E8 30.09R  
SARASOTA FAIR 74 73 97 E6 30.07R  
 
STATION/POSITION
 
 
CEDAR KEY  
VENICE  
 

 
FLZ062-065-066-069-070-075>078-171200-  
SOUTHWEST FLORIDA AND KEYS  
 
CITY SKY/WX TMP DP RH WIND PRES REMARKS
 
PUNTA GORDA FAIR 76 72 87 E6 30.10R  
FT MYERS FAIR 76 74 93 E6 30.07R  
SOUTHWEST INTL FAIR 76 75 97 E6 30.08R  
NAPLES FAIR 77 74 90 E8 30.07R  
MARATHON FAIR 82 75 79 E8 30.04R  
KEY WEST NAS PTCLDY 82 74 76 E14 30.04R  
KEY WEST INTL FAIR 83 74 74 E13 30.05R  
 
STATION/POSITION
 
 
VENICE  
26.0N 85.6W  
SAND KEY  
SOMBRERO KEY  
LONG KEY  
MOLASSES REEF  
 

 
FLZ067-068-071>074-171200-  
SOUTHEAST FLORIDA  
 
CITY SKY/WX TMP DP RH WIND PRES REMARKS
 
W PALM BEACH FAIR 80 75 84 E12 30.09S  
POMPANO BEACH FAIR 82 75 79 E10 30.08R  
FT LAUDER-EXEC FAIR 81 77 88 E12 30.08R  
FT LAUDERDALE FAIR 81 78 91 E13 30.07R  
PEMBROKE PINES FAIR 81 77 88 E7 30.09R  
OPA LOCKA FAIR 80 75 84 SE8 30.08R  
MIAMI FAIR 79 75 87 E9 30.07S  
WEST KENDALL FAIR 78 75 90 E9 30.07R  
HOMESTEAD FAIR 80 76 90 E7 30.06R  
 
STATION/POSITION
 
 
LAKE WORTH  
FOWEY ROCKS  
SETTLEMENT POINT  
 

 
 
 
CLICK HERE TO GO TO PREVIOUS BULLETINS.

The Nexlab FL Page Main Text Page